Погода в Сухиничи

Погода в Сухиничи : погода сейчас, прогноз погоды и архив. Всё, что Вы хотите узнать о погоде в Сухиничи!

Хотите узнать прогноз погоды в Сухиничи? Тогда Вам сюда: Погода в Сухиничи

Поиск расширенной информации на нашем сайте:

Другие новости

Новости СМИ2

Главная страница сайта

Новости сайта

03.07.2017

Напоминаем, что на нашем специализированном сайте Метеоцентр.Азия вы можете получить высокодетализированные автоматические прогнозы погоды по пунктам России, СНГ и мира в авиационном формате (включающие направление и скорость ветра, видимость, явления погоды, количество и форму облачности, нижнюю и верхнюю границу облачности).


Погода в Сухиничи - сегодня

Время (UTC), дата Ветер
(°,м/с) 
Видим.   Явления Облачность Т
(°С)
Тd
(°С)
f(%) Тe
(°С)
Pmin
(гПа)
dP
(гПа)
Po
(мм)
O2
(г/м3)
Тmin Tmax R s Состояние
почвы
12 08.12.17 160 (Ю) 20000 м    9/9 600 м 
[Sc]
-3.1 -5.9 81 -4  1011.9  -1.3  737  301           
15 08.12.17 170 (Ю) 11000 м    9/9 600 м 
[Sc]
-3.3 -4.8 89 -5  1011.2  -0.7  736  301           
18 08.12.17 170 (Ю) 4200 м  дымка  10/10 300 м 
[St]
-2.7 -3.1 97 -4  1011.2  0.1  736  300    -2.7       
21 08.12.17 200 (Ю) 4200 м  дымка{морось}  10/10 300 м 
[St]
-1.7 -2.1 97 -1  1011  -0.2  736  299           
00 09.12.17 210 (ЮЗ) 5000 м  дымка{морось}  9/9 600 м 
[Sc]
-0.7 -1.3 96 -2  1010.9  736  297           
03 09.12.17 200 (Ю) 5000 м  дымка  9/9 600 м 
[Sc]
-0.3 -0.9 96 -1  1010.9  0.2  736  297  -3.3    0.0     
06 09.12.17 210 (ЮЗ) 3200 м  дымка  10/10 300 м 
[St]
-0.1 -0.5 97 +1  1011.6  0.7  737  297  -2.7    0.0  равномерный
мокрый или
старый снег
100% 
09 09.12.17 200 (Ю) 1000 м  дымка  10/10 300 м 
[St]
+0.4 -0 97 +1  1012.4  0.7  737  297           
12 09.12.17 180 (Ю) 0500 м  туман  ?/?  
-0.2 -0.2 100 -1  1012.2  -0.1  737  297           
15 09.12.17 160 (Ю) 3600 м  дымка{туман}  10/10 300 м 
[St]
-0.5 -0.9 97 -1  1013.1  0.7  738  298           
18 09.12.17 120 (ЮВ) 4600 м  дымка{туман}  9/9 600 м 
[Sc]
-0.3 -0.8 96 -1  1012.3  -0.6  737  297    +0.4       
21 09.12.17 150 (ЮВ) 5000 м  дымка  9/9 600 м 
[Sc]
-0.1 -0.8 95 -2  1011.8  -0.6  737  297           
00 10.12.17 130 (ЮВ) 3200 м  дымка  10/10 300 м 
[St]
-0 -0.4 97 -2  1011.2  -0.5  736  297           
03 10.12.17 140 (ЮВ) 10 км    9/9 600 м 
[Sc]
+0.3 -0.8 92 -1  1009.5  -1.6  735  296  -0.5         
06 10.12.17 150 (ЮВ) 7000 м  дымка  10/10 300 м 
[St]
+0.5 -0.4 94 -1  1008.6  -0.7  734  295  -0.3      равномерный
мокрый или
старый снег
100% 
09 10.12.17 120 (ЮВ) 3800 м  дымка  10/10 300 м 
[St]
+1.1 +0.6 96 -1  1007.1  -1.5  733  294           
12 10.12.17 130 (ЮВ) 0600 м  туман  ?/?  
+1.3 +1 98 -1  1005.3  -1.7  732  293           
15 10.12.17 130 (ЮВ) 0600 м  туман  ?/?  
+1.8 +1.6 99 1004.1  -1.1  731  292           
18 10.12.17 110 (В) 2500 м  слаб. дождь{морось}  10/10 300 м 
[Frnb|Ns]
+2.5 +2.2 98 +1  1002.1  -1.8  730  291    +2.5  0.9     
21 10.12.17 140 (ЮВ) 3500 м  слаб. дождь  10/10 300 м 
[Frnb|Ns]
+4 +3.6 97 +2  1001.2  -0.8  729  289           
00 11.12.17 140 (ЮВ) 7000 м  слаб. дождь  10/10 300 м 
[Frnb|Ns]
+4.2 +3.3 94 +2  1000.6  -0.5  729  289           
03 11.12.17 130 (ЮВ) 7000 м  слаб. дождь  10/10 300 м 
[Frnb|Ns]
+3.5 +2.7 94 +2  1000.8  -0.5  729  290  +1.8       
06 11.12.17 140 (ЮВ) 6000 м  в посл. час дождь  10/10 300 м 
[Frnb|Ns]
+2.5 +1.8 95 +1  1001.8  0.8  730  291  +2.5       
09 11.12.17 200 (Ю) 6000 м  слаб. дождь{ливн. осадки}  10/10 300 м 
[Frnb|Ns]
+1.8 +1.2 96 +1  1003  1.1  730  292           
12 11.12.17 260 (З) 5000 м  в посл. час снег{ливн. осадки}  10/10 300 м 
[Frnb|Ns]
-0.3 -0.6 98 -3  1006.1  2.7  732  295           
Время (UTC), дата Ветер
(°,м/с) 
Видим.   Явления Облачность Т
(°С)
Тd
(°С)
f(%) Тe
(°С)
Pmin
(гПа)
dP
(гПа)
Po
(мм)
O2
(г/м3)
Тmin Tmax R s Состояние
почвы

Для получения пояснительной информации подведите курсор к названию столбца.

ПОГОДА в Сухиничи - архив

Всё, что Вы хотите узнать о погоде в Сухиничи - удобно и подробно!

Выберите нужную дату (начиная с 1 января 2015* года) и нажмите кнопку "Найти".
Будут отображены архивные сводки погоды по пункту Сухиничи, начиная с указанной даты.


Отображать данные в формате CSV (для использования в таблицах Excel)


Внимание! Наш архив погоды предназначен исключительно для личного некоммерческого использования в познавательных целях. Если Вам необходимы официальные справки о состоянии погоды (для производственных, юридических, коммерческих и т.п. целей), обращайтесь в органы Росгидромета.

*Примечание: данная дата относится к архиву по метеостанциям СССР (Россия, СНГ, Балтия).
Архив по метеостанциям Зарубежной Европы и Азии (кроме Китая) хранится 10 дней, по другим регионам земного шара (Китай, Африка, Америка, Австралия, Океания) - 1 день.

Сухиничи - район местоположения метеостанции


Название, широта, долгота, высота метеостанции:
Сухиничи 54.1°ш. 35.3°д. 238 м над ур. моря [Российская Федерация]

Дополнительная информация

В oтличие oт бoльшинства пoгoдных сайтoв мы публикуем пoдрoбную метеoинфoрмацию в детальнoм прoфессиoнальнoм фoрмате.

Характеристики температуры и влажнoсти вoздуха измеряются на высoте 2 м в тени вдали oт зданий и деревьев.
Скoрoсть ветра измеряется на высoте 10 м (на урoвне рoста челoвека скoрoсть ветра ниже в 1.5-2 раза). Если метеoстанция нахoдится в гoрoде или в лесу, тo скoрoсть ветра занижена на 2-4 м/с пo сравнению с oткрытым местoм. Скoрoсть ветра над акватoриями крупных рек и oзёр, а также на вершинах хoлмoв на 2-5 м/с выше, чем в oбычных услoвиях.
Атмoсфернoе давление в разных тoчках местнoсти мoжет значительнo oтличаться oт давления на метеoстанции, в зависимoсти oт услoвий рельефа (при пoдъёме на 10 м давление пoнижается примернo на 1 мм рт.ст.).